Dewpoint
37 38 39 40 41 42 42 42 41 40 38 35 35 35 36 38 39 40 40 40 40 41
36 37 38 39 40 42 42 41 39 38 37 36 35 33 34 36 36 36 37 37 38 38
34 36 37 39 40 40 40 40 40 39 38 36 34 33 33 34 34 34 35 36 36 36
31 33 34 36 38 39 40 40 39 38 37 36 35 33 32 32 32 32 33 33 34 34
29 30 30 31 33 35 36 38 39 38 37 37 36 35 33 32 32 32 32 32 32 32
28 29 29 29 30 31 33 35 36 36 37 37 37 36 35 34 33 33 32 32 32 32
30 30 29 29 29 30 30 31 33 34 35 35 35 35 35 35 34 34 34 35 35 33
31 31 30 29 30 30 30 30 31 32 33 33 33 32 34 34 35 35 36 36 36 36
32 31 30 29 29 29 29 28 29 30 30 30 30 36 37 36 36 37 36 36 37 37
31 30 30 30 29 28 29 29 29 29 29 29 30 36 37 36 35 35 35 35 36 36
30 30 30 30 30 29 29 29 29 30 30 30 29 36 37 37 34 32 31 32 33 34
29 27 29 29 30 30 29 28 29 30 30 29 29 35 36 36 32 31 30 31 31 31
25 25 26 27 27 28 28 27 29 30 31 33 32 35 36 37 32 30 28 29 30 35
25 25 25 26 27 27 27 28 27 26 26 27 29 29 36 37 33 30 29 27 28 30
Lifted_Index
14 14 14 14 14 14 13 13 13 14 14 15 15 15 15 15 16 16 16 16 15 15
14 14 15 14 14 14 14 14 14 14 14 15 15 15 15 15 15 15 15 15 15 15
14 14 15 15 15 14 14 14 14 14 14 14 15 15 15 15 15 15 15 15 15 15
13 14 15 15 15 15 15 15 15 15 15 15 15 15 15 14 14 14 14 14 15 15
12 13 14 15 16 16 16 16 16 15 15 15 15 15 15 15 14 14 14 14 15 15
12 12 13 15 16 17 17 17 17 16 16 16 16 16 16 16 15 15 15 15 15 15
12 12 13 14 16 17 17 17 17 17 17 16 16 16 16 17 17 17 16 16 16 16
11 12 12 13 15 16 17 17 17 17 17 17 17 17 17 17 17 17 17 16 16 16
11 11 12 12 14 15 16 16 16 16 16 16 16 17 17 17 17 17 17 16 16 15
11 11 11 12 13 14 15 15 15 14 14 14 15 16 17 17 17 17 17 16 16 15
10 10 11 11 12 14 14 14 14 13 13 14 15 15 16 16 17 17 17 16 16 15
10 10 10 11 12 13 14 13 13 13 13 13 14 14 15 15 16 16 16 16 15 15
9 10 10 11 12 12 12 12 12 12 13 13 13 13 14 14 14 14 15 15 14 14
9 10 10 11 12 12 12 12 12 13 13 14 14 14 13 13 14 14 14 14 14 14